Fort Worth NAS, TX

12:15 PM CDT on July 28, 2017 (GMT -0500)
Fort Worth Naval Air Station Jrb

Weather History for KNFW - January, 2013

Change the Weather History Date:

Saturday, January 12, 2013

  Actual Average Record
Temperature  
Mean Temperature 50 °F -  
Max Temperature 64 °F 54 °F 75 °F (2017)
Min Temperature 37 °F 36 °F 33 °F (2016)
Degree Days  
Heating Degree Days 14    
Moisture  
Dew Point 49 °F    
Average Humidity 75    
Maximum Humidity 90    
Minimum Humidity 49    
Precipitation  
Precipitation 0.00 in - - ()
Sea Level Pressure  
Sea Level Pressure 29.83 in    
Wind  
Wind Speed 9 mph (NW)    
Max Wind Speed 24 mph    
Max Gust Speed 31 mph    
Visibility 8 miles    
Events Rain    
Averages and records for this station are not official NWS values.
T = Trace of Precipitation, MM = Missing Value Source: NWS Daily Summary

Daily Weather History Graph

Daily Weather History Graph

Search for Another Location

Airport or City:

Trip Planner

Search our weather history database for the weather conditions in past years. The results will help you decide how hot, cold, wet, or windy it might be!

Date:

Astronomy

Jan. 12, 2013 Rise Set
Actual Time 7:32 AM CST 5:44 PM CST
Civil Twilight 7:05 AM CST 6:10 PM CST
Nautical Twilight 6:35 AM CST 6:41 PM CST
Astronomical Twilight 6:05 AM CST 7:10 PM CST
Moon 7:57 AM CST (1/12) 7:07 PM CST (1/12)
Length of Visible Light 11h 04m
Length of Day
10h 11m
New Moon, 1% of the Moon is Illuminated
Jan 12
New Moon
Jan 18
First Quarter
Jan 26
Full
Feb 3
Last Quarter
Feb 10
New

Hourly Weather History & Observations

Time (CST) Temp. Windchill Dew Point Humidity Pressure Visibility Wind Dir Wind Speed Gust Speed Precip Events Conditions
12:52 AM 64.0 °F - 57.9 °F 80% 29.82 in 9.0 mi South 10.4 mph - N/A   Overcast
1:20 AM 64.4 °F - 60.8 °F 88% 29.85 in 9.0 mi South 13.8 mph - N/A   Overcast
1:52 AM 64.9 °F - 60.1 °F 84% 29.78 in 10.0 mi SE 9.2 mph 19.6 mph N/A   Overcast
2:52 AM 64.9 °F - 61.0 °F 87% 29.81 in 10.0 mi South 13.8 mph - N/A   Overcast
3:36 AM 64.4 °F - 60.8 °F 88% 29.82 in 8.0 mi South 13.8 mph - N/A   Overcast
3:52 AM 64.9 °F - 60.1 °F 84% 29.78 in 8.0 mi South 12.7 mph - N/A   Overcast
4:41 AM 64.4 °F - 60.8 °F 88% 29.83 in 7.0 mi Calm Calm - N/A   Overcast
4:52 AM 64.0 °F - 60.1 °F 87% 29.79 in 7.0 mi Calm Calm - N/A   Overcast
5:20 AM 64.4 °F - 60.8 °F 88% 29.82 in 6.0 mi Calm Calm - 0.00 in Rain Light Rain
5:36 AM 64.4 °F - 60.8 °F 88% 29.82 in 7.0 mi Calm Calm - 0.00 in   Overcast
5:52 AM 62.1 °F - 57.9 °F 86% 29.78 in 4.0 mi Calm Calm - 0.00 in   Overcast
6:23 AM 62.6 °F - 59.0 °F 88% 29.84 in 5.0 mi Calm Calm - N/A   Overcast
6:42 AM 62.6 °F - 57.2 °F 82% 29.83 in 1.8 mi Calm Calm - N/A   Overcast
6:45 AM 60.8 °F - 57.2 °F 88% 29.83 in 0.8 mi Calm Calm - N/A   Overcast
6:52 AM 62.1 °F - 59.0 °F 90% 29.78 in 1.0 mi Calm Calm - N/A   Overcast
6:55 AM 62.6 °F - 59.0 °F 88% 29.83 in 2.5 mi Calm Calm - N/A   Overcast
7:02 AM 62.6 °F - 59.0 °F 88% 29.82 in 5.0 mi Calm Calm - N/A   Overcast
7:52 AM 62.1 °F - 57.9 °F 86% 29.79 in 5.0 mi NW 3.5 mph - N/A   Overcast
7:58 AM 62.6 °F - 57.2 °F 82% 29.83 in 4.0 mi WNW 6.9 mph - N/A   Overcast
8:52 AM 62.1 °F - 57.9 °F 86% 29.80 in 5.0 mi WNW 8.1 mph - N/A   Overcast
9:14 AM 60.8 °F - 53.6 °F 77% 29.84 in 10.0 mi NW 6.9 mph - 0.00 in   Overcast
9:52 AM 60.1 °F - 53.1 °F 78% 29.80 in 10.0 mi NW 9.2 mph - 0.00 in   Overcast
10:52 AM 60.1 °F - 50.0 °F 69% 29.80 in 10.0 mi NW 8.1 mph - N/A   Overcast
11:52 AM 57.9 °F - 42.1 °F 56% 29.76 in 10.0 mi North 10.4 mph - N/A   Overcast
12:52 PM 55.9 °F - 39.0 °F 53% 29.74 in 10.0 mi NNW 12.7 mph - 0.00 in   Overcast
1:52 PM 55.9 °F - 37.0 °F 49% 29.71 in 10.0 mi NNW 8.1 mph - N/A   Overcast
2:11 PM 55.4 °F - 37.4 °F 51% 29.77 in 10.0 mi NNW 11.5 mph - N/A   Overcast
2:52 PM 53.1 °F - 37.9 °F 57% 29.75 in 10.0 mi North 12.7 mph - N/A   Overcast
3:52 PM 48.9 °F - 36.0 °F 61% 29.79 in 10.0 mi NW 19.6 mph 28.8 mph N/A   Overcast
4:52 PM 46.0 °F 38.0 °F 34.0 °F 63% 29.82 in 10.0 mi NNW 21.9 mph 27.6 mph N/A   Overcast
5:52 PM 43.0 °F 34.8 °F 30.0 °F 60% 29.88 in 10.0 mi NNW 18.4 mph - N/A   Overcast
6:52 PM 39.9 °F 30.2 °F 28.0 °F 63% 29.91 in 10.0 mi NNW 20.7 mph 31.1 mph N/A   Overcast
7:52 PM 37.9 °F 26.8 °F 28.0 °F 68% 29.92 in 10.0 mi North 24.2 mph 29.9 mph N/A   Overcast
8:52 PM 37.9 °F 27.9 °F 28.0 °F 68% 29.93 in 10.0 mi North 19.6 mph 24.2 mph N/A   Overcast
9:52 PM 37.9 °F 29.2 °F 27.0 °F 65% 29.95 in 10.0 mi North 15.0 mph 24.2 mph 0.00 in Rain Light Rain
10:52 PM 37.0 °F 27.4 °F 27.0 °F 67% 29.98 in 10.0 mi NNW 17.3 mph 26.5 mph 0.00 in   Overcast
11:52 PM 37.0 °F - 25.0 °F 62% 29.98 in 10.0 mi North - - N/A   Overcast